TimeCST,TemperatureF,Dew PointF,Humidity,Sea Level PressureIn,VisibilityMPH,Wind Direction,Wind SpeedMPH,Gust SpeedMPH,PrecipitationIn,Events,Conditions,WindDirDegrees,DateUTC
12:13 AM,28.4,26.6,93,29.92,10.0,East,6.9,-,N/A,,Scattered Clouds,90,2012-12-15 06:13:00
12:33 AM,28.4,26.6,93,29.92,10.0,East,5.8,-,N/A,,Clear,100,2012-12-15 06:33:00
12:53 AM,28.4,24.8,86,29.91,10.0,East,6.9,-,N/A,,Clear,90,2012-12-15 06:53:00
1:13 AM,30.2,26.6,86,29.89,10.0,East,5.8,-,N/A,,Scattered Clouds,80,2012-12-15 07:13:00
1:33 AM,30.2,24.8,80,29.89,10.0,East,5.8,-,N/A,,Scattered Clouds,90,2012-12-15 07:33:00
1:53 AM,30.2,24.8,80,29.88,10.0,East,5.8,-,N/A,,Scattered Clouds,90,2012-12-15 07:53:00
2:13 AM,30.2,26.6,86,29.87,10.0,East,5.8,-,N/A,,Scattered Clouds,80,2012-12-15 08:13:00
2:33 AM,30.2,26.6,86,29.87,7.0,East,5.8,-,N/A,,Scattered Clouds,80,2012-12-15 08:33:00
2:53 AM,30.2,26.6,86,29.86,10.0,East,8.1,-,N/A,,Scattered Clouds,100,2012-12-15 08:53:00
3:13 AM,30.2,26.6,86,29.85,10.0,East,8.1,-,N/A,,Mostly Cloudy,80,2012-12-15 09:13:00
3:33 AM,30.2,26.6,86,29.83,10.0,East,6.9,-,N/A,,Mostly Cloudy,80,2012-12-15 09:33:00
3:53 AM,32.0,26.6,80,29.82,10.0,East,9.2,-,N/A,,Mostly Cloudy,80,2012-12-15 09:53:00
4:13 AM,32.0,26.6,80,29.82,10.0,East,8.1,-,N/A,,Scattered Clouds,90,2012-12-15 10:13:00
4:33 AM,32.0,26.6,80,29.82,10.0,East,10.4,-,N/A,,Scattered Clouds,90,2012-12-15 10:33:00
4:54 AM,32.0,26.6,80,29.81,10.0,East,9.2,-,N/A,,Scattered Clouds,90,2012-12-15 10:54:00
5:13 AM,32.0,26.6,80,29.81,10.0,East,8.1,-,N/A,,Clear,80,2012-12-15 11:13:00
5:33 AM,32.0,26.6,80,29.81,10.0,East,6.9,-,N/A,,Scattered Clouds,80,2012-12-15 11:33:00
5:53 AM,32.0,26.6,80,29.79,7.0,East,10.4,16.1,N/A,,Scattered Clouds,80,2012-12-15 11:53:00
6:13 AM,32.0,28.4,87,29.79,4.0,ENE,6.9,-,N/A,,Light Drizzle,70,2012-12-15 12:13:00
6:33 AM,32.0,28.4,87,29.78,7.0,East,8.1,-,N/A,,Mostly Cloudy,80,2012-12-15 12:33:00
6:53 AM,32.0,28.4,87,29.77,5.0,ENE,8.1,-,N/A,,Mostly Cloudy,70,2012-12-15 12:53:00
7:13 AM,32.0,28.4,87,29.76,5.0,ENE,8.1,-,N/A,,Overcast,70,2012-12-15 13:13:00
7:33 AM,32.0,28.4,87,29.76,7.0,ENE,9.2,16.1,N/A,,Mostly Cloudy,70,2012-12-15 13:33:00
7:53 AM,32.0,28.4,87,29.74,7.0,ENE,9.2,-,N/A,,Scattered Clouds,60,2012-12-15 13:53:00
8:14 AM,33.8,28.4,81,29.74,7.0,ENE,12.7,-,N/A,,Mostly Cloudy,60,2012-12-15 14:14:00
8:33 AM,33.8,30.2,87,29.74,7.0,ENE,9.2,-,N/A,,Mostly Cloudy,60,2012-12-15 14:33:00
8:53 AM,33.8,30.2,87,29.74,5.0,East,8.1,-,N/A,,Mostly Cloudy,80,2012-12-15 14:53:00
9:13 AM,33.8,30.2,87,29.73,5.0,East,10.4,16.1,N/A,,Mostly Cloudy,80,2012-12-15 15:13:00
9:33 AM,33.8,30.2,87,29.72,5.0,ENE,9.2,-,N/A,,Mostly Cloudy,70,2012-12-15 15:33:00
9:53 AM,33.8,30.2,87,29.71,4.0,ENE,10.4,16.1,N/A,,Overcast,70,2012-12-15 15:53:00
10:13 AM,33.8,30.2,87,29.71,3.0,ENE,8.1,-,N/A,,Overcast,70,2012-12-15 16:13:00
10:33 AM,33.8,30.2,87,29.70,4.0,ENE,10.4,-,N/A,,Overcast,70,2012-12-15 16:33:00
10:53 AM,33.8,30.2,87,29.68,3.0,ENE,9.2,-,N/A,,Overcast,70,2012-12-15 16:53:00
11:13 AM,33.8,30.2,87,29.68,3.0,ENE,10.4,-,N/A,,Overcast,70,2012-12-15 17:13:00
11:33 AM,33.8,30.2,87,29.67,2.5,ENE,9.2,16.1,N/A,Rain,Light Rain,70,2012-12-15 17:33:00
11:53 AM,33.8,30.2,87,29.66,1.2,ENE,9.2,-,0.02,Rain,Rain,70,2012-12-15 17:53:00
12:13 PM,33.8,30.2,87,29.66,1.2,East,10.4,-,0.05,Snow,Snow,80,2012-12-15 18:13:00
12:33 PM,33.8,30.2,87,29.64,1.8,ENE,11.5,17.3,0.08,,Overcast,70,2012-12-15 18:33:00
12:53 PM,33.8,30.2,87,29.63,1.5,ENE,11.5,-,0.01,Rain,Light Rain,70,2012-12-15 18:53:00
1:13 PM,33.8,30.2,87,29.62,1.5,ENE,9.2,-,0.02,Rain,Rain,70,2012-12-15 19:13:00
1:53 PM,33.8,30.2,87,29.60,1.5,East,8.1,17.3,0.01,Rain,Light Rain,90,2012-12-15 19:53:00
2:13 PM,33.8,30.2,87,29.60,1.5,East,11.5,18.4,0.02,Rain,Light Rain,80,2012-12-15 20:13:00
2:33 PM,32.0,30.2,93,29.59,1.2,ENE,9.2,-,0.03,Rain,Light Rain,70,2012-12-15 20:33:00
2:53 PM,33.8,30.2,87,29.59,1.2,ENE,15.0,19.6,N/A,Rain,Rain,70,2012-12-15 20:53:00
3:13 PM,32.0,30.2,93,29.58,1.2,ENE,10.4,16.1,0.02,Snow,Light Snow,70,2012-12-15 21:13:00
3:33 PM,32.0,30.2,93,29.58,1.5,East,12.7,16.1,0.03,Rain,Rain,80,2012-12-15 21:33:00
3:53 PM,33.8,30.2,87,29.58,2.5,East,15.0,18.4,0.01,Rain,Light Rain,80,2012-12-15 21:53:00
4:13 PM,33.8,30.2,87,29.57,2.5,East,13.8,18.4,0.02,Rain,Light Rain,80,2012-12-15 22:13:00
4:33 PM,33.8,30.2,87,29.57,3.0,ENE,10.4,-,0.03,Rain,Rain,70,2012-12-15 22:33:00
4:53 PM,33.8,30.2,87,29.57,1.5,East,11.5,-,N/A,,Drizzle,80,2012-12-15 22:53:00
5:13 PM,33.8,32.0,93,29.56,1.5,East,12.7,19.6,N/A,,Overcast,80,2012-12-15 23:13:00
5:33 PM,33.8,32.0,93,29.56,1.2,East,9.2,-,N/A,,Light Drizzle,80,2012-12-15 23:33:00
5:53 PM,33.8,32.0,93,29.56,1.5,East,5.8,18.4,N/A,Rain,Light Rain,90,2012-12-15 23:53:00
6:13 PM,33.8,32.0,93,29.55,1.8,East,10.4,-,0.01,,Drizzle,90,2012-12-16 00:13:00
6:33 PM,33.8,32.0,93,29.55,1.8,East,8.1,16.1,0.02,,Drizzle,80,2012-12-16 00:33:00
6:53 PM,33.8,32.0,93,29.55,1.2,East,10.4,16.1,N/A,,Drizzle,90,2012-12-16 00:53:00
7:13 PM,33.8,32.0,93,29.54,1.8,East,9.2,-,0.01,Rain,Rain,90,2012-12-16 01:13:00
7:53 PM,35.6,32.0,87,29.53,4.0,ESE,6.9,-,N/A,,Drizzle,110,2012-12-16 01:53:00
8:13 PM,33.8,32.0,93,29.53,7.0,ESE,6.9,-,N/A,,Light Drizzle,110,2012-12-16 02:13:00
8:33 PM,33.8,32.0,93,29.53,4.0,East,5.8,-,0.01,,Drizzle,100,2012-12-16 02:33:00
8:53 PM,33.8,32.0,93,29.52,4.0,East,3.5,-,N/A,Rain,Light Rain,90,2012-12-16 02:53:00
9:13 PM,33.8,32.0,93,29.52,5.0,East,4.6,-,0.01,,Drizzle,90,2012-12-16 03:13:00
9:33 PM,33.8,32.0,93,29.52,7.0,Calm,Calm,-,0.01,,Drizzle,0,2012-12-16 03:33:00
9:53 PM,33.8,30.2,87,29.52,7.0,Calm,Calm,-,N/A,,Drizzle,0,2012-12-16 03:53:00
10:13 PM,33.8,30.2,87,29.51,5.0,Calm,Calm,-,N/A,Rain,Light Rain,0,2012-12-16 04:13:00
10:33 PM,33.8,30.2,87,29.51,5.0,Calm,Calm,-,0.01,Rain,Rain,0,2012-12-16 04:33:00
10:53 PM,33.8,30.2,87,29.51,4.0,Calm,Calm,-,N/A,Rain,Light Rain,0,2012-12-16 04:53:00
11:13 PM,33.8,30.2,87,29.50,5.0,Calm,Calm,-,0.01,,Drizzle,0,2012-12-16 05:13:00
11:33 PM,33.8,30.2,87,29.50,5.0,Calm,Calm,-,0.01,,Light Drizzle,0,2012-12-16 05:33:00
11:53 PM,33.8,30.2,87,29.50,7.0,Calm,Calm,-,N/A,,Light Drizzle,0,2012-12-16 05:53:00